Location: Auckland
(36.8670°S, 174.7670°E)
Time: 03:19:56
(UTC+12:00)

Tiros 1 despin weight - Pass Details

Date: 28 July 2019
Orbit: 594 x 642 km, 48.2° (Epoch: 23 August)

Event Time Altitude Azimuth Distance (km) Brightness Sun altitude
Rises 21:23:26 0° 300° (WNW) 2,847 - -46.1°
Reaches altitude 10° 21:25:44 10° 298° (WNW) 1,944 - -46.6°
Maximum altitude 21:30:11 71° 213° (SSW) 640 - -47.4°
Drops below altitude 10° 21:34:39 10° 128° (SE) 1,950 - -48.3°
Sets 21:36:57 0° 126° (SE) 2,857 - -48.8°
